OpenBCM V1.13 (Linux)

Packet Radio Mailbox

DB0FHN

[JN59NK Nuernberg]

 Login: GUEST





  
LU9DCE > KEP      10.01.20 18:34l 246 Lines 12038 Bytes #999 (0) @ WW
BID : 7090_LU9DCE
Read: DJ6UX GUEST
Subj: TLE 10 01
Path: DB0FHN<DB0BLO<DB0ERF<DB0RES<IR2UBX<IZ3LSV<IW0QNL<JH4XSY<N3HYM<GB7CIP<
      EI2GYB<ZL2BAU<EA2RCF<LU9DCE
Sent: 200110/1600Z 7090@LU9DCE.TOR.BA.ARG.SOAM LinBPQ6.0.19

            __    _  _  ___  ____   ___  ____    ____  ____  ____
           (  )  / )( \/ _ \(    \ / __)(  __)  (  _ \(  _ \/ ___)
           / (_/\) \/ (\__  )) D (( (__  ) _)    ) _ ( ) _ (\___ \
           \____/\____/(___/(____/ \___)(____)  (____/(____/(____/
               ESTACION DE PACKET RADIO - BUENOS AIRES (GF05OM)
                   BOLETINES INFORMATIVOS PROGRAMADOS (BIP)
                           LINUX - LU9DCE@GMX.COM
+----------------------------------------------------------------------------+
OSCAR 7
1  7530U 74089B   20009.80818385 -.00000054  00000-0 -52966-4 0  9998
2  7530 101.7769 340.5936 0012092 312.7875 162.8841 12.53641512 66221
OSCAR 11 (UoSAT 2)
1 14781U 84021B   20009.12635844  .00000068  00000-0  14440-4 0  9991
2 14781  97.5977  29.0119 0008817  18.2235 341.9294 14.83133655929061
OSCAR 19 (LUSAT)
1 20442U 90005G   20010.09943194 -.00000012  00000-0  12154-4 0  9999
2 20442  98.6737 316.9808 0010643 264.1169  95.8802 14.32942392565795
EYESAT A
1 22825U 93061C   20010.41082538 -.00000007  00000-0  15420-4 0  9996
2 22825  98.9180   8.9002 0009335 116.9619 243.2517 14.30075429371356
ITAMSAT
1 22826U 93061D   20010.43445953 -.00000010  00000-0  13933-4 0  9994
2 22826  98.9120   8.8903 0009937 106.6254 253.6019 14.30410024371568
RADIO ROSTO
1 23439U 94085A   20009.83433936 -.00000072 +00000-0 -84871-3 0  9999
2 23439 064.8152 144.3802 0146065 073.0296 288.6578 11.27569326031022
JAS 2
1 24278U 96046B   20009.59785755 -.00000044  00000-0 -11383-4 0  9990
2 24278  98.5650 140.5225 0351288  68.9739 294.8597 13.53095180155512
TECHSAT 1B
1 25397U 98043D   20009.55794513 -.00000024  00000-0  87674-5 0  9994
2 25397  98.7121 312.4205 0001881 128.6356 231.4991 14.23677308117023
ISS (ZARYA)
1 25544U 98067A   20010.55524649  .00000334  00000-0  14046-4 0  9992
2 25544  51.6455  53.3902 0005209 118.1753  35.0981 15.49550061207429
PCSAT
1 26931U 01043C   20010.46682779 -.00000055  00000-0  10726-4 0  9992
2 26931  67.0494 192.6735 0006746 263.1578  96.8755 14.30564125954404
SAUDISAT 1C
1 27607U 02058C   20009.96891194 -.00000016  00000-0  18467-4 0  9993
2 27607  64.5547 141.9800 0067087 215.7015 143.9593 14.75601161917325
CUTE-1
1 27844U 03031E   20010.50726707  .00000041  00000-0  38018-4 0  9998
2 27844  98.6833  20.6318 0010353 150.5271 209.6493 14.22215211857540
CUBESAT XI 4
1 27848U 03031J   20010.48791500  .00000025  00000-0  31175-4 0  9991
2 27848  98.6906  21.1513 0010042 161.9089 198.2448 14.21805229857384
MOZHAYETS 4
1 27939U 03042A   20010.37885208 -.00000002  00000-0  83270-5 0  9991
2 27939  98.0662 147.5545 0013978 133.2993 226.9379 14.66829276870691
CUBESAT XI 5
1 28895U 05043F   20009.86526244  .00000102  00000-0  28341-4 0  9997
2 28895  97.9852 150.9351 0017920  66.4998 293.8086 14.63728031757492
CUTE-1.7+APD II
1 32785U 08021C   20010.20762201  .00000177  00000-0  24725-4 0  9998
2 32785  97.5607   5.3538 0011825 305.4980  54.5134 14.88401092634250
DELFI C3
1 32789U 08021G   20010.36778617  .00000803  00000-0  57014-4 0  9990
2 32789  97.4400  58.5765 0013288 136.7441 223.4833 15.07377288637941
SEEDS
1 32791U 08021J   20009.47536024 +.00000398 +00000-0 +45598-4 0  9990
2 32791 097.5332 010.7776 0011832 276.7172 083.2701 14.90948641634547
YUBELEINY
1 32953U 08025A   20010.28079867  .00000037  00000-0  19437-3 0  9994
2 32953  82.5036  16.9034 0020133  43.6598 316.6070 12.43093532527857
PRISM (HITOMI)
1 33493U 09002B   20009.56518023  .00001017  00000-0  94088-4 0  9996
2 33493  98.1330 303.3778 0013845 220.5348 139.4843 14.96869947595794
KKS-1 (KISEKI)
1 33499U 09002H   20010.15664119  .00000073  00000-0  18772-4 0  9994
2 33499  98.3320 220.2539 0007893 273.3634  86.6671 14.75494676589529
SWISSCUBE
1 35932U 09051B   20009.89239834  .00000104  00000-0  34629-4 0  9997
2 35932  98.6002 187.1064 0006607 253.9599 106.0871 14.56347210546648

BEESAT
1 35933U 09051C   20010.15814654  .00000081  00000-0  29222-4 0  9995
2 35933  98.6014 189.2145 0004736 268.1843  91.8811 14.56428682546790
ITUPSAT 1
1 35935U 09051E   20010.47230474  .00000072  00000-0  27791-4 0  9993
2 35935  98.6122 189.7583 0007049 265.2091  94.8301 14.55580730546571
XIWANG-1 (HOPE-1)
1 36122U 09072B   20010.48015525 -.00000021  00000-0  55352-4 0  9993
2 36122 100.0821   8.2490 0006986 227.6055 132.4474 13.16353015483959
TISAT 1
1 36799U 10035E   20010.15016538  .00000291  00000-0  35398-4 0  9999
2 36799  98.1762 174.4645 0013293 129.1558 231.0843 14.91244566515384
JUGNU
1 37839U 11058B   20009.80424645  .00000294  00000-0  15213-4 0  9990
2 37839  19.9594 170.9333 0018996  68.1394  68.4223 14.12668552426297
SRMSAT
1 37841U 11058D   20010.00911942  .00000306  00000-0  23226-4 0  9995
2 37841  19.9704 230.7212 0011786 292.1041 217.5341 14.10647568425718
M-CUBED/EXP-1 PRIME
1 37855U 11061F   20010.07214408  .00000657  00000-0  40601-4 0  9999
2 37855 101.7267  16.2834 0172129 187.8157 172.0367 15.05927689447684
HORYU 2
1 38340U 12025D   20010.08512776  .00000147  00000-0  29394-4 0  9990
2 38340  98.3044  59.5594 0011504 183.4064 176.7068 14.75796676411450
STRAND 1
1 39090U 13009E   20010.32574007  .00000043  00000-0  30238-4 0  9992
2 39090  98.4676 217.6343 0009934  42.9708 317.2252 14.35113490359880
SOMP
1 39134U 13015E   20010.44232876  .00001449  00000-0  73968-4 0  9994
2 39134  64.8633  73.6169 0037965 270.1637  89.5140 15.20644890371872
BEESAT 3
1 39135U 13015F   20010.14236946  .00001041  00000-0  59945-4 0  9991
2 39135  64.8666  95.8104 0044732 271.6224  87.9779 15.17844535371427
BEESAT 2
1 39136U 13015G   20009.53283385 +.00000865 +00000-0 +52810-4 0  9999
2 39136 064.8717 102.2239 0031017 279.9154 079.8471 15.17265315371244
CUBEBUG 1
1 39153U 13018D   20010.20973028  .00000178  00000-0  30150-4 0  9997
2 39153  97.9812 112.2358 0015700 250.6941 109.2573 14.80650182362228
ZACUBE
1 39417U 13066B   20010.48182851  .00000193  00000-0  30414-4 0  9999
2 39417  97.5611  17.3970 0060371  79.5300 281.2709 14.81204367331500
TRITON 1
1 39427U 13066M   20009.50027916  .00000109  00000-0  25575-4 0  9990
2 39427  97.7036 339.5316 0112553 229.4296 129.7071 14.67927875328387
GOMX 1
1 39430U 13066Q   20010.53107049  .00000181  00000-0  42056-4 0  9998
2 39430  97.7725 318.8176 0150553 325.8206  33.3362 14.59336812326628
HUMSAT D
1 39433U 13066T   20010.06724500  .00000526  00000-0  56420-4 0  9999
2 39433  97.5286  53.8916 0029986 337.7754  22.2164 14.92346979333700
CUBEBUG 2
1 39440U 13066AA  20009.76929039 +.00000164 +00000-0 +29647-4 0  9995
2 39440 097.6159 001.2479 0081109 138.0204 222.7262 14.75940750329020
FUNCUBE 1
1 39444U 13066AE  20010.09757016  .00000247  00000-0  36461-4 0  9995
2 39444  97.5572  19.1614 0059444  73.8950 286.8798 14.82041691330359
UWE-3
1 39446U 13066AG  20010.43742656  .00000177  00000-0  29966-4 0  9993
2 39446  97.5882   9.0582 0071378 108.3008 252.5987 14.78476027329667
SPROUT
1 39770U 14029E   20010.14345031  .00000684  00000-0  81412-4 0  9994
2 39770  97.8901 117.2276 0009759 127.0546 233.1555 14.87570112305371
UNISAT 6
1 40012U 14033C   20009.75114219 +.00000160 +00000-0 +31088-4 0  9990
2 40012 097.7292 232.2060 0058813 154.8355 205.5740 14.74053887298892
DUCHIFAT 1
1 40021U 14033M   20009.54068024  .00000452  00000-0  51770-4 0  9993
2 40021  97.9346 299.8982 0014297  93.8076 266.4777 14.90781935302067
QB50P1
1 40025U 14033R   20009.52821757  .00000246  00000-0  32120-4 0  9994
2 40025  97.9117 293.9065 0013769 103.7274 256.5476 14.89050509301809
CHUBUSAT 1
1 40300U 14070C   20010.46847686  .00000421  00000-0  21155-4 0  9996
2 40300  97.3084  84.2372 0021187  54.6648 316.5785 15.22316951287320
NUDT-PHONESAT
1 40900U 15049B   20010.54072745  .00002038  00000-0  88256-4 0  9995
2 40900  97.4338  22.9104 0012655 174.7603 282.9573 15.23489313238990
ZDPS 2A
1 40901U 15049C   20010.50364215  .00000761  00000-0  40689-4 0  9997
2 40901  97.4613  18.3999 0012604 200.6163 310.5596 15.18017913238453
ZDPS 2B
1 40902U 15049D   20010.53819277  .00001224  00000-0  63539-4 0  9998
2 40902  97.4572  15.7742 0012681 197.5541 261.5862 15.17939702238431
XW-2A
1 40903U 15049E   20010.53766663  .00001863  00000-0  44825-4 0  9995
2 40903  97.3123  59.2175 0014956 116.7525 349.4053 15.42507918241977
KAITUO 1A
1 40904U 15049F   20010.55692520  .00000575  00000-0  33742-4 0  9993
2 40904  97.4722  14.1243 0013566 209.5068 305.4555 15.15563765238178
OBJECT G
1 40905U 15049G   20010.51147313  .00000393  00000-0  24918-4 0  9998
2 40905  97.4784  11.4247 0014858 205.2192 253.8899 15.14435231238023
XW-2C
1 40906U 15049H   20010.51524479  .00000379  00000-0  23227-4 0  9997
2 40906  97.4724  14.2678 0014089 199.9918 318.2743 15.15887856238173
XW-2D
1 40907U 15049J   20010.52131064  .00000786  00000-0  44181-4 0  9997
2 40907  97.4712  13.9621 0013476 196.6074 262.2401 15.16099967238191
LILACSAT 2
1 40908U 15049K   20010.50111414  .00000142  00000-0  11421-4 0  9990
2 40908  97.4853  12.5142 0015047 206.0135 306.1803 15.13929558237942
XW-2F
1 40910U 15049M   20010.49008433  .00001045  00000-0  55196-4 0  9997
2 40910  97.4652  16.2558 0014260 187.7772 324.1636 15.17641659238225
XW-2B
1 40911U 15049N   20010.50734602  .00000472  00000-0  28000-4 0  9991
2 40911  97.4729  14.6306 0013401 197.6150 314.4428 15.16025651238082
KAITUO 1B
1 40912U 15049P   20010.52556933  .00001121  00000-0  55115-4 0  9992
2 40912  97.4494  20.2509 0015031 167.8123 292.6322 15.19996144238571
TIANWANG 1C (TW-1C)
1 40926U 15051B   20010.53344343  .00014379  00000-0  17687-3 0  9991
2 40926  97.1097  61.7074 0005540 338.7987 127.2213 15.60339929242205
